Weather History for Hickory, NC

Change the Weather History Date:

Saturday, November 24, 2012

  Actual Average Record
Temperature  
Mean Temperature 41 °F -  
Max Temperature 48 °F 57 °F 75 °F (1973)
Min Temperature 28 °F 36 °F 13 °F (1970)
Degree Days  
Heating Degree Days 24    
Moisture  
Dew Point 21 °F    
Average Humidity 45    
Maximum Humidity 67    
Minimum Humidity 27    
Precipitation  
Precipitation 0.00 in - - ()
Sea Level Pressure  
Sea Level Pressure 30.01 in    
Wind  
Wind Speed 6 mph (NW)    
Max Wind Speed 15 mph    
Max Gust Speed 17 mph    
Visibility 10 miles    
Events      
Averages and records for this station are not official NWS values.
T = Trace of Precipitation, MM = Missing Value Source: NWS Daily Summary

Daily Weather History Graph

Daily Weather History Graph

Search for Another Location

Airport:

Trip Planner

Search our weather history database for the weather conditions in past years. The results will help you decide how hot, cold, wet, or windy it might be!

Date:

Astronomy

Nov. 24, 2012 Rise Set
Actual Time 7:10 AM EST 5:13 PM EST
Civil Twilight 6:43 AM EST 5:41 PM EST
Nautical Twilight 6:11 AM EST 6:12 PM EST
Astronomical Twilight 5:41 AM EST 6:43 PM EST
Moon 2:52 PM EST (11/24) 3:32 AM EST (11/24)
Length of Visible Light 10h 58m
Length of Day
10h 02m
Waxing Gibbous, 87% of the Moon is Illuminated
Nov 24
Waxing Gibbous
Nov 28
Full
Dec 6
Last Quarter
Dec 13
New
Dec 20
First Quarter

Hourly Weather History & Observations

Time (EST) Temp. Windchill Dew Point Humidity Pressure Visibility Wind Dir Wind Speed Gust Speed Precip Events Conditions
12:53 AM 44.1 °F - 26.1 °F 49% 29.94 in 10.0 mi Calm Calm - N/A   Clear
1:53 AM 44.1 °F 40.8 °F 26.1 °F 49% 29.94 in 10.0 mi NNW 5.8 mph - N/A   Clear
2:53 AM 43.0 °F 40.3 °F 26.1 °F 51% 29.94 in 10.0 mi NW 4.6 mph - N/A   Clear
3:53 AM 42.1 °F 35.7 °F 25.0 °F 51% 29.94 in 10.0 mi NW 11.5 mph - N/A   Clear
4:53 AM 39.9 °F 35.1 °F 25.0 °F 55% 29.95 in 10.0 mi WNW 6.9 mph - N/A   Clear
5:53 AM 39.9 °F 33.9 °F 24.1 °F 53% 29.97 in 10.0 mi NW 9.2 mph - N/A   Clear
6:53 AM 36.0 °F 32.1 °F 23.0 °F 59% 29.99 in 10.0 mi NW 4.6 mph - N/A   Clear
7:53 AM 37.9 °F 32.7 °F 23.0 °F 55% 29.99 in 10.0 mi NW 6.9 mph - N/A   Clear
8:53 AM 41.0 °F 33.1 °F 23.0 °F 49% 30.01 in 10.0 mi NW 15.0 mph - N/A   Clear
9:53 AM 43.0 °F 38.8 °F 23.0 °F 45% 30.03 in 10.0 mi NNW 6.9 mph - N/A   Clear
10:53 AM 45.0 °F 41.2 °F 21.0 °F 39% 30.04 in 10.0 mi NW 6.9 mph - N/A   Clear
11:53 AM 48.0 °F - 21.0 °F 34% 30.01 in 10.0 mi NNW 8.1 mph - N/A   Clear
12:53 PM 48.0 °F - 19.0 °F 32% 29.99 in 10.0 mi NNW 12.7 mph 17.3 mph N/A   Clear
1:53 PM 48.9 °F - 19.0 °F 31% 29.98 in 10.0 mi NW 9.2 mph 17.3 mph N/A   Clear
2:53 PM 48.9 °F - 16.0 °F 27% 29.99 in 10.0 mi WNW 10.4 mph 17.3 mph N/A   Clear
3:53 PM 48.0 °F - 17.1 °F 29% 29.99 in 10.0 mi Variable 6.9 mph - N/A   Clear
4:53 PM 44.1 °F 40.8 °F 16.0 °F 32% 30.02 in 10.0 mi North 5.8 mph - N/A   Clear
5:53 PM 41.0 °F 37.1 °F 16.0 °F 36% 30.04 in 10.0 mi NW 5.8 mph - N/A   Clear
6:53 PM 37.9 °F - 17.1 °F 43% 30.06 in 10.0 mi Calm Calm - N/A   Clear
7:53 PM 37.9 °F - 17.1 °F 43% 30.08 in 10.0 mi Calm Calm - N/A   Clear
8:53 PM 34.0 °F 28.8 °F 17.1 °F 50% 30.09 in 10.0 mi West 5.8 mph - N/A   Clear
9:53 PM 34.0 °F 28.8 °F 18.0 °F 52% 30.09 in 10.0 mi NW 5.8 mph - N/A   Clear
10:53 PM 34.0 °F 31.0 °F 19.0 °F 54% 30.09 in 10.0 mi NW 3.5 mph - N/A   Clear
11:53 PM 28.9 °F 25.2 °F 19.0 °F 67% 30.08 in 10.0 mi NNE 3.5 mph - N/A   Clear